Time,TemperatureF,DewpointF,PressureIn,WindDirection,WindDirectionDegrees,WindSpeedMPH,WindSpeedGustMPH,Humidity,HourlyPrecipIn,Conditions,Clouds,dailyrainin,SoftwareType,DateUTC
2013-01-20 00:07:00,46.1,44.0,30.12,SSE,162,0.0,-999.0,93,-99.99,,,0.00,weatherlink.com 1.10,2013-01-20 05:07:00,
2013-01-20 00:22:00,45.7,44.0,30.12,SSE,162,0.0,-999.0,93,-99.99,,,0.00,weatherlink.com 1.10,2013-01-20 05:22:00,
2013-01-20 00:37:00,45.7,44.0,30.11,SSE,162,0.0,-999.0,94,-99.99,,,0.00,weatherlink.com 1.10,2013-01-20 05:37:00,
2013-01-20 00:52:00,45.2,43.0,30.11,SSE,162,0.0,-999.0,93,-99.99,,,0.00,weatherlink.com 1.10,2013-01-20 05:52:00,
2013-01-20 01:07:00,44.6,43.0,30.11,SSE,162,0.0,-999.0,94,-99.99,,,0.00,weatherlink.com 1.10,2013-01-20 06:07:00,
2013-01-20 01:22:00,44.2,43.0,30.11,SSE,162,0.0,-999.0,94,-99.99,,,0.00,weatherlink.com 1.10,2013-01-20 06:22:00,
2013-01-20 01:37:00,44.1,43.0,30.11,SSE,162,0.0,-999.0,95,-99.99,,,0.00,weatherlink.com 1.10,2013-01-20 06:37:00,
2013-01-20 01:52:00,43.9,43.0,30.11,SSE,162,0.0,-999.0,95,-99.99,,,0.00,weatherlink.com 1.10,2013-01-20 06:52:00,
2013-01-20 02:07:00,43.8,43.0,30.11,SSE,162,0.0,-999.0,95,-99.99,,,0.00,weatherlink.com 1.10,2013-01-20 07:07:00,
2013-01-20 02:22:00,45.4,44.0,30.10,SSE,164,0.0,-999.0,96,-99.99,,,0.00,weatherlink.com 1.10,2013-01-20 07:22:00,
2013-01-20 02:37:00,46.1,45.0,30.09,South,172,0.0,-999.0,96,-99.99,,,0.00,weatherlink.com 1.10,2013-01-20 07:37:00,
2013-01-20 02:52:00,46.1,45.0,30.09,South,172,0.0,-999.0,95,-99.99,,,0.00,weatherlink.com 1.10,2013-01-20 07:52:00,
2013-01-20 03:07:00,48.0,47.0,30.09,South,172,0.0,-999.0,96,-99.99,,,0.00,weatherlink.com 1.10,2013-01-20 08:07:00,
2013-01-20 03:22:00,47.4,46.0,30.08,South,178,0.0,-999.0,94,-99.99,,,0.00,weatherlink.com 1.10,2013-01-20 08:22:00,
2013-01-20 03:37:00,46.7,45.0,30.09,South,179,0.0,-999.0,94,-99.99,,,0.00,weatherlink.com 1.10,2013-01-20 08:37:00,
2013-01-20 03:52:00,48.2,46.0,30.08,SSW,199,0.0,-999.0,93,-99.99,,,0.00,weatherlink.com 1.10,2013-01-20 08:52:00,
2013-01-20 04:07:00,49.5,47.0,30.08,WNW,294,0.0,-999.0,92,-99.99,,,0.00,weatherlink.com 1.10,2013-01-20 09:07:00,
2013-01-20 04:22:00,50.4,48.0,30.08,WNW,282,0.0,-999.0,90,-99.99,,,0.00,weatherlink.com 1.10,2013-01-20 09:22:00,
2013-01-20 04:37:00,50.5,47.0,30.08,West,271,0.0,-999.0,89,-99.99,,,0.00,weatherlink.com 1.10,2013-01-20 09:37:00,
2013-01-20 04:52:00,50.4,47.0,30.07,WNW,299,0.0,-999.0,89,-99.99,,,0.00,weatherlink.com 1.10,2013-01-20 09:52:00,
2013-01-20 05:07:00,50.2,47.0,30.07,WNW,292,0.0,-999.0,89,-99.99,,,0.00,weatherlink.com 1.10,2013-01-20 10:07:00,
2013-01-20 05:22:00,50.5,47.0,30.07,West,272,0.0,-999.0,89,-99.99,,,0.00,weatherlink.com 1.10,2013-01-20 10:22:00,
2013-01-20 05:37:00,50.5,47.0,30.07,West,281,0.0,-999.0,89,-99.99,,,0.00,weatherlink.com 1.10,2013-01-20 10:37:00,
2013-01-20 05:52:00,50.7,48.0,30.06,SW,236,4.0,-999.0,89,-99.99,,,0.00,weatherlink.com 1.10,2013-01-20 10:52:00,
2013-01-20 06:07:00,50.8,47.0,30.06,WNW,289,0.0,-999.0,88,-99.99,,,0.00,weatherlink.com 1.10,2013-01-20 11:07:00,
2013-01-20 06:22:00,51.0,48.0,30.06,WSW,243,6.0,-999.0,88,-99.99,,,0.00,weatherlink.com 1.10,2013-01-20 11:22:00,
2013-01-20 06:37:00,50.7,47.0,30.07,West,264,0.0,-999.0,88,-99.99,,,0.00,weatherlink.com 1.10,2013-01-20 11:37:00,
2013-01-20 06:52:00,50.7,47.0,30.07,West,260,0.0,-999.0,88,-99.99,,,0.00,weatherlink.com 1.10,2013-01-20 11:52:00,
2013-01-20 07:07:00,50.4,47.0,30.07,West,268,0.0,-999.0,88,-99.99,,,0.00,weatherlink.com 1.10,2013-01-20 12:07:00,
2013-01-20 07:22:00,50.2,47.0,30.07,West,261,0.0,-999.0,88,-99.99,,,0.00,weatherlink.com 1.10,2013-01-20 12:22:00,
2013-01-20 07:37:00,50.4,46.0,30.08,WSW,254,0.0,-999.0,85,-99.99,,,0.00,weatherlink.com 1.10,2013-01-20 12:37:00,
2013-01-20 07:52:00,50.5,46.0,30.08,WNW,295,0.0,-999.0,85,-99.99,,,0.00,weatherlink.com 1.10,2013-01-20 12:52:00,
2013-01-20 08:07:00,50.8,46.0,30.08,WNW,302,0.0,-999.0,84,-99.99,,,0.00,weatherlink.com 1.10,2013-01-20 13:07:00,
2013-01-20 08:22:00,51.3,46.0,30.07,WNW,284,1.0,-999.0,83,-99.99,,,0.00,weatherlink.com 1.10,2013-01-20 13:22:00,
2013-01-20 08:37:00,51.9,46.0,30.07,NW,305,0.0,-999.0,81,-99.99,,,0.00,weatherlink.com 1.10,2013-01-20 13:37:00,
2013-01-20 08:52:00,52.5,47.0,30.08,WNW,284,0.0,-999.0,80,-99.99,,,0.00,weatherlink.com 1.10,2013-01-20 13:52:00,
2013-01-20 09:07:00,53.2,47.0,30.08,NW,315,0.0,-999.0,79,-99.99,,,0.00,weatherlink.com 1.10,2013-01-20 14:07:00,
2013-01-20 09:22:00,54.1,47.0,30.08,WNW,287,0.0,-999.0,77,-99.99,,,0.00,weatherlink.com 1.10,2013-01-20 14:22:00,
2013-01-20 09:37:00,54.8,47.0,30.08,West,265,2.0,-999.0,76,-99.99,,,0.00,weatherlink.com 1.10,2013-01-20 14:37:00,
2013-01-20 09:52:00,54.8,47.0,30.08,WNW,292,0.0,-999.0,75,-99.99,,,0.00,weatherlink.com 1.10,2013-01-20 14:52:00,
2013-01-20 10:07:00,55.0,47.0,30.08,West,268,0.0,-999.0,75,-99.99,,,0.00,weatherlink.com 1.10,2013-01-20 15:07:00,
2013-01-20 10:22:00,55.1,47.0,30.08,WNW,299,8.0,-999.0,75,-99.99,,,0.00,weatherlink.com 1.10,2013-01-20 15:22:00,
2013-01-20 10:37:00,55.6,48.0,30.07,WNW,294,7.0,-999.0,76,-99.99,,,0.00,weatherlink.com 1.10,2013-01-20 15:37:00,
2013-01-20 10:52:00,56.0,49.0,30.06,West,268,2.0,-999.0,76,-99.99,,,0.00,weatherlink.com 1.10,2013-01-20 15:52:00,
2013-01-20 11:07:00,56.7,49.0,30.05,WSW,254,0.0,-999.0,74,-99.99,,,0.00,weatherlink.com 1.10,2013-01-20 16:07:00,
2013-01-20 11:22:00,56.9,48.0,30.04,West,281,2.0,-999.0,73,-99.99,,,0.00,weatherlink.com 1.10,2013-01-20 16:22:00,
2013-01-20 11:37:00,57.5,50.0,30.03,SW,223,0.0,-999.0,75,-99.99,,,0.00,weatherlink.com 1.10,2013-01-20 16:37:00,
2013-01-20 11:52:00,57.3,49.0,30.02,WSW,240,7.0,-999.0,74,-99.99,,,0.00,weatherlink.com 1.10,2013-01-20 16:52:00,
2013-01-20 12:07:00,57.3,49.0,30.00,South,189,4.0,-999.0,74,-99.99,,,0.00,weatherlink.com 1.10,2013-01-20 17:07:00,
2013-01-20 12:22:00,57.5,49.0,29.99,SW,222,2.0,-999.0,72,-99.99,,,0.00,weatherlink.com 1.10,2013-01-20 17:22:00,
2013-01-20 12:37:00,58.3,49.0,29.98,WNW,292,0.0,-999.0,70,-99.99,,,0.00,weatherlink.com 1.10,2013-01-20 17:37:00,
2013-01-20 12:52:00,58.1,49.0,29.97,WSW,258,0.0,-999.0,72,-99.99,,,0.00,weatherlink.com 1.10,2013-01-20 17:52:00,
2013-01-20 13:07:00,58.6,50.0,29.97,SW,234,7.0,-999.0,72,-99.99,,,0.00,weatherlink.com 1.10,2013-01-20 18:07:00,
2013-01-20 13:22:00,59.2,49.0,29.96,WSW,246,0.0,-999.0,68,-99.99,,,0.00,weatherlink.com 1.10,2013-01-20 18:22:00,
2013-01-20 13:37:00,59.2,48.0,29.95,West,260,0.0,-999.0,66,-99.99,,,0.00,weatherlink.com 1.10,2013-01-20 18:37:00,
2013-01-20 13:52:00,59.5,48.0,29.95,SW,230,0.0,-999.0,66,-99.99,,,0.00,weatherlink.com 1.10,2013-01-20 18:52:00,
2013-01-20 14:07:00,59.8,48.0,29.94,WSW,241,0.0,-999.0,65,-99.99,,,0.00,weatherlink.com 1.10,2013-01-20 19:07:00,
2013-01-20 14:22:00,59.5,48.0,29.94,West,260,0.0,-999.0,66,-99.99,,,0.00,weatherlink.com 1.10,2013-01-20 19:22:00,
2013-01-20 14:37:00,59.6,47.0,29.94,WNW,284,0.0,-999.0,64,-99.99,,,0.00,weatherlink.com 1.10,2013-01-20 19:37:00,
2013-01-20 14:52:00,59.8,48.0,29.94,West,271,0.0,-999.0,66,-99.99,,,0.00,weatherlink.com 1.10,2013-01-20 19:52:00,
2013-01-20 15:07:00,59.9,48.0,29.94,WSW,240,0.0,-999.0,64,-99.99,,,0.00,weatherlink.com 1.10,2013-01-20 20:07:00,
2013-01-20 15:22:00,59.9,47.0,29.94,WSW,241,0.0,-999.0,63,-99.99,,,0.00,weatherlink.com 1.10,2013-01-20 20:22:00,
2013-01-20 15:37:00,59.9,48.0,29.94,West,264,0.0,-999.0,64,-99.99,,,0.00,weatherlink.com 1.10,2013-01-20 20:37:00,
2013-01-20 15:52:00,59.6,47.0,29.94,WNW,282,0.0,-999.0,64,-99.99,,,0.00,weatherlink.com 1.10,2013-01-20 20:52:00,
2013-01-20 16:07:00,59.3,47.0,29.94,WSW,250,0.0,-999.0,65,-99.99,,,0.00,weatherlink.com 1.10,2013-01-20 21:07:00,
2013-01-20 16:22:00,58.6,48.0,29.94,WNW,287,0.0,-999.0,67,-99.99,,,0.00,weatherlink.com 1.10,2013-01-20 21:22:00,
2013-01-20 16:37:00,59.0,48.0,29.94,NW,305,0.0,-999.0,67,-99.99,,,0.00,weatherlink.com 1.10,2013-01-20 21:37:00,
2013-01-20 16:52:00,58.6,48.0,29.94,West,264,0.0,-999.0,69,-99.99,,,0.00,weatherlink.com 1.10,2013-01-20 21:52:00,
2013-01-20 17:07:00,58.0,49.0,29.94,NW,308,0.0,-999.0,73,-99.99,,,0.00,weatherlink.com 1.10,2013-01-20 22:07:00,
2013-01-20 17:22:00,57.0,50.0,29.94,NW,325,0.0,-999.0,76,-99.99,,,0.00,weatherlink.com 1.10,2013-01-20 22:22:00,
2013-01-20 17:37:00,56.0,50.0,29.95,NW,323,0.0,-999.0,80,-99.99,,,0.00,weatherlink.com 1.10,2013-01-20 22:37:00,
2013-01-20 17:52:00,55.9,51.0,29.95,West,277,0.0,-999.0,83,-99.99,,,0.00,weatherlink.com 1.10,2013-01-20 22:52:00,
2013-01-20 18:07:00,55.7,51.0,29.96,WSW,248,1.0,-999.0,83,-99.99,,,0.00,weatherlink.com 1.10,2013-01-20 23:07:00,
2013-01-20 18:22:00,55.3,51.0,29.96,WNW,298,0.0,-999.0,85,-99.99,,,0.00,weatherlink.com 1.10,2013-01-20 23:22:00,
2013-01-20 18:52:00,54.5,51.0,29.97,WNW,299,0.0,-999.0,87,-99.99,,,0.00,weatherlink.com 1.10,2013-01-20 23:52:00,
2013-01-20 19:07:00,54.4,51.0,29.98,West,268,0.0,-999.0,87,-99.99,,,0.00,weatherlink.com 1.10,2013-01-21 00:07:00,
2013-01-20 19:22:00,54.1,51.0,29.98,West,275,0.0,-999.0,88,-99.99,,,0.00,weatherlink.com 1.10,2013-01-21 00:22:00,
2013-01-20 19:37:00,53.9,51.0,29.98,WSW,254,0.0,-999.0,89,-99.99,,,0.00,weatherlink.com 1.10,2013-01-21 00:37:00,
2013-01-20 19:52:00,53.5,51.0,29.98,West,280,0.0,-999.0,90,-99.99,,,0.00,weatherlink.com 1.10,2013-01-21 00:52:00,
2013-01-20 20:07:00,53.1,50.0,29.99,West,280,0.0,-999.0,90,-99.99,,,0.00,weatherlink.com 1.10,2013-01-21 01:07:00,
2013-01-20 20:22:00,52.2,50.0,29.99,West,280,0.0,-999.0,91,-99.99,,,0.00,weatherlink.com 1.10,2013-01-21 01:22:00,
2013-01-20 20:37:00,52.0,50.0,30.00,West,280,0.0,-999.0,91,-99.99,,,0.00,weatherlink.com 1.10,2013-01-21 01:37:00,
2013-01-20 20:52:00,51.6,49.0,30.00,WNW,287,0.0,-999.0,90,-99.99,,,0.00,weatherlink.com 1.10,2013-01-21 01:52:00,
2013-01-20 21:07:00,50.2,47.0,30.00,WNW,288,0.0,-999.0,89,-99.99,,,0.00,weatherlink.com 1.10,2013-01-21 02:07:00,
2013-01-20 21:22:00,48.9,45.0,30.01,WNW,288,0.0,-999.0,86,-99.99,,,0.00,weatherlink.com 1.10,2013-01-21 02:22:00,
2013-01-20 21:37:00,48.3,43.0,30.01,WNW,288,0.0,-999.0,82,-99.99,,,0.00,weatherlink.com 1.10,2013-01-21 02:37:00,
2013-01-20 21:52:00,48.5,41.0,30.02,WNW,288,0.0,-999.0,76,-99.99,,,0.00,weatherlink.com 1.10,2013-01-21 02:52:00,
2013-01-20 22:07:00,49.1,40.0,30.02,WNW,288,0.0,-999.0,72,-99.99,,,0.00,weatherlink.com 1.10,2013-01-21 03:07:00,
2013-01-20 22:22:00,48.6,40.0,30.02,WNW,288,0.0,-999.0,72,-99.99,,,0.00,weatherlink.com 1.10,2013-01-21 03:22:00,
2013-01-20 22:37:00,47.9,40.0,30.02,WNW,288,0.0,-999.0,73,-99.99,,,0.00,weatherlink.com 1.10,2013-01-21 03:37:00,
2013-01-20 23:07:00,47.0,39.0,30.02,WNW,288,0.0,-999.0,74,-99.99,,,0.00,weatherlink.com 1.10,2013-01-21 04:07:00,
2013-01-20 23:22:00,46.5,39.0,30.02,WNW,288,0.0,-999.0,75,-99.99,,,0.00,weatherlink.com 1.10,2013-01-21 04:22:00,
2013-01-20 23:37:00,45.7,39.0,30.02,WNW,288,0.0,-999.0,77,-99.99,,,0.00,weatherlink.com 1.10,2013-01-21 04:37:00,
2013-01-20 23:52:00,45.7,39.0,30.02,WNW,288,0.0,-999.0,77,-99.99,,,0.00,weatherlink.com 1.10,2013-01-21 04:52:00,